Weather History for KGEV - February, 2001

Change the Weather History Date:

Saturday, February 3, 2001

  Actual Average Record
Temperature  
Mean Temperature 30 °F -  
Max Temperature 41 °F 45 °F 70 °F (1989)
Min Temperature 19 °F 23 °F 4 °F (1981)
Degree Days  
Heating Degree Days 35    
Moisture  
Dew Point 3 °F    
Average Humidity 35    
Maximum Humidity 46    
Minimum Humidity 22    
Precipitation  
Precipitation 0.00 in - - ()
Sea Level Pressure  
Sea Level Pressure 30.13 in    
Wind  
Wind Speed 9 mph (WSW)    
Max Wind Speed 23 mph    
Max Gust Speed 32 mph    
Visibility 10 miles    
Events      
Averages and records for this station are not official NWS values.
T = Trace of Precipitation, MM = Missing Value Source: NWS Daily Summary

Daily Weather History Graph

Daily Weather History Graph

Search for Another Location

Airport or City:

Trip Planner

Search our weather history database for the weather conditions in past years. The results will help you decide how hot, cold, wet, or windy it might be!

Date:

Astronomy

Feb. 03, 2001 Rise Set
Actual Time 7:25 AM EST 5:54 PM EST
Civil Twilight 6:58 AM EST 6:21 PM EST
Nautical Twilight 6:27 AM EST 6:51 PM EST
Astronomical Twilight 5:57 AM EST 7:22 PM EST
Moon 1:15 PM EST 2:47 AM EST
Length of Visible Light 11h 22m
Length of Day
10h 28m
Waxing Gibbous, 72% of the Moon is Illuminated
Feb 3
Waxing Gibbous
Feb 8
Full
Feb 14
Last Quarter
Feb 23
New
Mar 2
First Quarter

Hourly Weather History & Observations

Time (EST) Temp. Windchill Dew Point Humidity Pressure Visibility Wind Dir Wind Speed Gust Speed Precip Events Conditions
12:18 AM 21.2 °F 13.6 °F -0.4 °F 39% 30.03 in 10.0 mi NW 5.8 mph - N/A   Clear
12:38 AM 21.2 °F 9.5 °F -0.4 °F 39% 30.04 in 10.0 mi West 11.5 mph 18.4 mph N/A   Clear
12:58 AM 21.2 °F 9.5 °F 1.4 °F 42% 30.04 in 10.0 mi West 11.5 mph - N/A   Clear
1:18 AM 21.2 °F 7.3 °F 1.4 °F 42% 30.04 in 10.0 mi West 16.1 mph - N/A   Clear
1:38 AM 21.2 °F 9.5 °F 1.4 °F 42% 30.05 in 10.0 mi West 11.5 mph 18.4 mph N/A   Clear
1:58 AM 21.2 °F 6.4 °F 3.2 °F 46% 30.06 in 10.0 mi West 18.4 mph 26.5 mph N/A   Clear
2:18 AM 21.2 °F 4.9 °F 1.4 °F 42% 30.06 in 10.0 mi West 23.0 mph 29.9 mph N/A   Clear
2:38 AM 21.2 °F 6.4 °F 1.4 °F 42% 30.08 in 10.0 mi West 18.4 mph 21.9 mph N/A   Clear
2:58 AM 21.2 °F 7.3 °F 1.4 °F 42% 30.08 in 10.0 mi WNW 16.1 mph 23.0 mph N/A   Clear
3:17 AM 21.2 °F 6.8 °F 1.4 °F 42% 30.08 in 10.0 mi West 17.3 mph 26.5 mph N/A   Clear
3:38 AM 19.4 °F 6.0 °F 1.4 °F 46% 30.08 in 10.0 mi West 13.8 mph 23.0 mph N/A   Clear
3:58 AM 21.2 °F 8.3 °F 1.4 °F 42% 30.08 in 10.0 mi WNW 13.8 mph 20.7 mph N/A   Clear
4:17 AM 21.2 °F 7.3 °F 1.4 °F 42% 30.09 in 10.0 mi West 16.1 mph 32.2 mph N/A   Clear
4:37 AM 21.2 °F 6.8 °F -0.4 °F 39% 30.07 in 10.0 mi WNW 17.3 mph 27.6 mph N/A   Clear
4:57 AM 21.2 °F 8.3 °F -0.4 °F 39% 30.08 in 10.0 mi West 13.8 mph 21.9 mph N/A   Clear
5:17 AM 21.2 °F - -0.4 °F 39% 30.08 in 10.0 mi Calm Calm - N/A   Clear
5:37 AM 21.2 °F 16.4 °F -0.4 °F 39% 30.10 in 10.0 mi WNW 3.5 mph - N/A   Clear
5:57 AM 21.2 °F 8.3 °F -0.4 °F 39% 30.10 in 10.0 mi WNW 13.8 mph 19.6 mph N/A   Clear
6:17 AM 19.4 °F 12.8 °F -0.4 °F 42% 30.12 in 10.0 mi West 4.6 mph - N/A   Clear
6:37 AM 21.2 °F 16.4 °F -0.4 °F 39% 30.12 in 10.0 mi WSW 3.5 mph - N/A   Clear
6:57 AM 21.2 °F 14.9 °F -4.0 °F 33% 30.13 in 10.0 mi West 4.6 mph - N/A   Clear
7:17 AM 21.2 °F 11.7 °F -4.0 °F 33% 30.14 in 10.0 mi West 8.1 mph - N/A   Clear
7:37 AM 23.0 °F 15.8 °F -5.8 °F 28% 30.15 in 10.0 mi WNW 5.8 mph - N/A   Clear
7:57 AM 21.2 °F - -5.8 °F 30% 30.15 in 10.0 mi Calm Calm - N/A   Clear
8:17 AM 21.2 °F - -0.4 °F 39% 30.15 in 10.0 mi Calm Calm - N/A   Clear
8:37 AM 23.0 °F - 3.2 °F 43% 30.16 in 10.0 mi Calm Calm - N/A   Clear
8:58 AM 23.0 °F - 5.0 °F 46% 30.17 in - Calm Calm - N/A   Unknown
9:18 AM 23.0 °F - 1.4 °F 39% 30.18 in 10.0 mi Calm Calm - N/A   Clear
9:38 AM 26.6 °F - 1.4 °F 34% 30.18 in 10.0 mi Calm Calm - N/A   Clear
9:58 AM 28.4 °F 24.6 °F 3.2 °F 34% 30.19 in 10.0 mi SE 3.5 mph - N/A   Clear
10:18 AM 30.2 °F - -2.2 °F 25% 30.20 in 10.0 mi Calm Calm - N/A   Clear
10:38 AM 32.0 °F - -0.4 °F 25% 30.20 in 10.0 mi Calm Calm - N/A   Clear
10:58 AM 32.0 °F 26.4 °F -2.2 °F 23% 30.20 in 10.0 mi ESE 5.8 mph - N/A   Clear
11:18 AM 33.8 °F - -2.2 °F 22% 30.20 in 10.0 mi Calm Calm - N/A   Clear
11:38 AM 35.6 °F 30.7 °F -0.4 °F 22% 30.19 in 10.0 mi West 5.8 mph - N/A   Clear
11:58 AM 35.6 °F - -0.4 °F 22% 30.18 in 10.0 mi Calm Calm - N/A   Clear
12:18 PM 37.4 °F 33.8 °F 3.2 °F 24% 30.16 in 10.0 mi SE 4.6 mph - N/A   Clear
12:38 PM 37.4 °F 32.1 °F 10.4 °F 33% 30.16 in 10.0 mi West 6.9 mph - N/A   Clear
12:58 PM 37.4 °F 30.3 °F 10.4 °F 33% 30.14 in 10.0 mi West 10.4 mph - N/A   Clear
1:18 PM 41.0 °F 37.1 °F 10.4 °F 29% 30.14 in 10.0 mi WSW 5.8 mph - N/A   Clear
1:38 PM 41.0 °F 38.0 °F 12.2 °F 31% 30.14 in 10.0 mi West 4.6 mph - N/A   Clear
1:58 PM 41.0 °F 34.3 °F 12.2 °F 31% 30.13 in 10.0 mi West 11.5 mph 16.1 mph N/A   Clear
2:18 PM 41.0 °F 36.4 °F 12.2 °F 31% 30.13 in 10.0 mi WNW 6.9 mph 17.3 mph N/A   Clear
2:38 PM 41.0 °F 34.7 °F 12.2 °F 31% 30.13 in 10.0 mi West 10.4 mph 16.1 mph N/A   Clear
2:58 PM 41.0 °F 35.8 °F 10.4 °F 29% 30.13 in 10.0 mi West 8.1 mph 19.6 mph N/A   Clear
3:18 PM 41.0 °F 35.8 °F 10.4 °F 29% 30.13 in 10.0 mi West 8.1 mph - N/A   Clear
3:38 PM 41.0 °F 39.0 °F 10.4 °F 29% 30.13 in 10.0 mi WSW 3.5 mph - N/A   Clear
3:58 PM 41.0 °F 37.1 °F 8.6 °F 26% 30.13 in 10.0 mi SE 5.8 mph - N/A   Clear
4:18 PM 37.4 °F 32.8 °F 6.8 °F 28% 30.14 in 10.0 mi SSE 5.8 mph - N/A   Clear
4:38 PM 37.4 °F 32.8 °F 8.6 °F 30% 30.15 in 10.0 mi SE 5.8 mph - N/A   Clear
4:58 PM 35.6 °F 30.7 °F 8.6 °F 33% 30.15 in 10.0 mi SSE 5.8 mph - N/A   Clear
5:18 PM 35.6 °F 29.9 °F 6.8 °F 30% 30.16 in 10.0 mi SE 6.9 mph - N/A   Clear
5:38 PM 35.6 °F 30.7 °F 8.6 °F 33% 30.16 in 10.0 mi SSE 5.8 mph - N/A   Clear
5:58 PM 33.8 °F 28.6 °F 6.8 °F 32% 30.17 in 10.0 mi SSE 5.8 mph - N/A   Clear
6:18 PM 32.0 °F 28.7 °F 6.8 °F 35% 30.18 in 10.0 mi SSE 3.5 mph - N/A   Clear
6:38 PM 32.0 °F 28.7 °F 8.6 °F 38% 30.18 in 10.0 mi South 3.5 mph - N/A   Clear
6:58 PM 32.0 °F 27.5 °F 6.8 °F 35% 30.18 in 10.0 mi South 4.6 mph - N/A   Clear
7:18 PM 32.0 °F 27.5 °F 8.6 °F 38% 30.18 in 10.0 mi South 4.6 mph - N/A   Clear
7:38 PM 30.2 °F - 8.6 °F 40% 30.19 in 10.0 mi Calm Calm - N/A   Clear
7:58 PM 30.2 °F 26.7 °F 8.6 °F 40% 30.20 in 10.0 mi SSE 3.5 mph - N/A   Clear
8:18 PM 32.0 °F - 6.8 °F 35% 30.20 in 10.0 mi Calm Calm - N/A   Clear
8:38 PM 30.2 °F 26.7 °F 8.6 °F 40% 30.20 in 10.0 mi SSW 3.5 mph - N/A   Clear
8:58 PM 32.0 °F - 8.6 °F 38% 30.20 in 10.0 mi Calm Calm - N/A   Clear
9:18 PM 28.4 °F - 8.6 °F 43% 30.20 in 10.0 mi Calm Calm - N/A   Clear
9:38 PM 32.0 °F - 8.6 °F 38% 30.20 in 10.0 mi Calm Calm - N/A   Clear
9:58 PM 32.0 °F - 8.6 °F 38% 30.20 in 10.0 mi Calm Calm - N/A   Clear
10:18 PM 28.4 °F - 10.4 °F 47% 30.20 in 10.0 mi Calm Calm - N/A   Clear
10:38 PM 28.4 °F - 8.6 °F 43% 30.20 in 10.0 mi Calm Calm - N/A   Clear
10:58 PM 28.4 °F 23.3 °F 10.4 °F 47% 30.20 in 10.0 mi SSE 4.6 mph - N/A   Clear
11:18 PM 28.4 °F - 10.4 °F 47% 30.20 in 10.0 mi Calm Calm - N/A   Clear
11:38 PM 28.4 °F - 10.4 °F 47% 30.20 in 10.0 mi Calm Calm - N/A   Clear
11:58 PM 28.4 °F - 8.6 °F 43% 30.18 in 10.0 mi Calm Calm - N/A   Clear